Date String (YYYY-MM-DD hh:mm:ss) UTC,Instrument flags,Ambient pressure (hPa),Sample flow (lpm),Bypass flow (lpm),Sample temperature (°C),Ambient temperature (°C),ASC tube jacket temperature (°C),LED temperature (°C),Box temperature (°C),Sample RH (%),Span deviation,Mass concentration (μg/m³),Mass concentration (μg/m³),Mass concentration (μg/m³)
DateTimeUTC,F1_M11,P_M11,Q1_M11,Q2_M11,T1_M11,T2_M11,T3_M11,T4_M11,T5_M11,U1_M11,ZSPAN_M11,X0_M11,X2_M11,X1_M11
2023-02-05 09:00:00,,0825.3,5.01,0.00,22.3,21.0,00.0,31.2,24.2,10.4,0000.0,0008.74,0004.29,0003.78
2023-02-05 09:01:00,,0825.3,4.97,0.00,22.3,21.0,00.0,31.2,24.2,10.6,0000.0,0008.56,0004.37,0003.85
2023-02-05 09:02:00,,0825.3,5.04,0.00,22.4,21.0,00.0,31.2,24.2,10.7,0000.0,0008.53,0004.46,0003.94
2023-02-05 09:03:00,,0825.4,4.96,0.00,22.4,21.0,00.0,31.2,24.2,10.8,0000.0,0008.31,0004.53,0003.99
2023-02-05 09:04:00,,0825.4,5.03,0.00,22.4,20.9,00.0,31.2,24.1,10.9,0000.0,0007.91,0004.53,0003.99
2023-02-05 09:05:00,,0825.3,4.96,0.00,22.3,20.9,00.0,31.2,24.1,10.9,0000.0,0007.89,0004.53,0003.98
2023-02-05 09:06:00,,0825.3,5.04,0.00,22.3,20.9,00.0,31.2,24.1,11.0,0000.0,0007.83,0004.51,0003.97
2023-02-05 09:07:00,,0825.3,4.97,0.00,22.3,20.9,00.0,31.2,24.2,11.0,0000.0,0007.83,0004.50,0003.98
2023-02-05 09:08:00,,0825.3,5.04,0.00,22.3,20.9,00.0,31.2,24.2,11.1,0000.0,0007.87,0004.52,0004.03
2023-02-05 09:09:00,,0825.3,4.96,0.00,22.4,21.0,00.0,31.2,24.2,10.9,0000.0,0007.95,0004.57,0004.08
2023-02-05 09:10:00,,0825.3,5.03,0.00,22.4,21.0,00.0,31.2,24.2,10.9,0000.0,0008.00,0004.64,0004.17
2023-02-05 09:11:00,,0825.3,4.96,0.00,22.4,21.0,00.0,31.2,24.2,11.2,0000.0,0007.98,0004.71,0004.24
2023-02-05 09:12:00,,0825.3,5.03,0.00,22.4,21.0,00.0,31.2,24.2,11.3,0000.0,0007.97,0004.76,0004.30
2023-02-05 09:13:00,,0825.3,4.97,0.00,22.4,21.1,00.0,31.2,24.2,11.3,0000.0,0008.04,0004.84,0004.38
2023-02-05 09:14:00,,0825.4,5.04,0.00,22.4,21.1,00.0,31.2,24.2,11.3,0000.0,0008.40,0004.93,0004.48
2023-02-05 09:15:00,,0825.4,4.96,0.00,22.4,21.0,00.0,31.2,24.2,11.3,0000.0,0008.86,0005.05,0004.58
2023-02-05 09:16:00,,0825.4,5.04,0.00,22.3,20.9,00.0,31.2,24.2,11.3,0000.0,0009.04,0005.18,0004.70
2023-02-05 09:17:00,,0825.3,4.96,0.00,22.3,20.9,00.0,31.2,24.2,11.3,0000.0,0009.11,0005.26,0004.80
2023-02-05 09:18:00,,0825.3,5.02,0.00,22.3,20.9,00.0,31.2,24.2,11.3,0000.0,0009.21,0005.37,0004.88
2023-02-05 09:19:00,,0825.2,4.98,0.00,22.3,20.9,00.0,31.2,24.2,11.3,0000.0,0009.19,0005.43,0004.95
2023-02-05 09:20:00,,0825.2,5.02,0.00,22.3,20.9,00.0,31.2,24.1,11.3,0000.0,0009.42,0005.55,0005.05
2023-02-05 09:21:00,,0825.2,4.98,0.00,22.3,20.8,00.0,31.2,24.1,11.3,0000.0,0009.63,0005.67,0005.15
2023-02-05 09:22:00,,0825.2,5.00,0.00,22.3,20.9,00.0,31.2,24.1,11.3,0000.0,0009.97,0005.82,0005.26
2023-02-05 09:23:00,,0825.3,5.01,0.00,22.3,20.9,00.0,31.2,24.1,11.2,0000.0,0010.13,0005.92,0005.34
2023-02-05 09:24:00,,0825.2,4.97,0.00,22.3,21.0,00.0,31.2,24.1,10.9,0000.0,0010.12,0005.93,0005.36
2023-02-05 09:25:00,,0825.2,5.03,0.00,22.3,21.0,00.0,31.2,24.2,10.8,0000.0,0009.88,0005.89,0005.35
2023-02-05 09:26:00,,0825.3,4.96,0.00,22.3,20.9,00.0,31.2,24.1,10.5,0000.0,0009.32,0005.80,0005.28
2023-02-05 09:27:00,,0825.3,5.04,0.00,22.3,20.9,00.0,31.2,24.1,10.3,0000.0,0009.15,0005.67,0005.17
2023-02-05 09:28:00,,0825.3,4.97,0.00,22.3,20.9,00.0,31.2,24.1,10.1,0000.0,0009.36,0005.57,0005.07
2023-02-05 09:29:00,,0825.3,5.04,0.00,22.3,20.9,00.0,31.2,24.1,10.2,0000.0,0009.55,0005.46,0004.99
2023-02-05 09:30:00,,0825.3,4.97,0.00,22.3,20.9,00.0,31.2,24.1,10.3,0000.0,0009.53,0005.41,0004.94
2023-02-05 09:31:00,,0825.3,5.04,0.00,22.3,20.9,00.0,31.1,24.2,10.4,0000.0,0009.61,0005.32,0004.86
2023-02-05 09:32:00,,0825.3,4.98,0.00,22.3,21.0,00.0,31.1,24.2,10.3,0000.0,0009.80,0005.25,0004.78
2023-02-05 09:33:00,,0825.3,5.00,0.00,22.3,21.0,00.0,31.1,24.2,10.3,0000.0,0009.78,0005.13,0004.68
2023-02-05 09:34:00,,0825.2,5.00,0.00,22.3,21.0,00.0,31.1,24.2,10.4,0000.0,0009.77,0005.03,0004.60
2023-02-05 09:35:00,,0825.3,4.97,0.00,22.3,21.0,00.0,31.1,24.1,10.8,0000.0,0009.73,0005.01,0004.58
2023-02-05 09:36:00,,0825.3,5.02,0.00,22.3,21.1,00.0,31.1,24.1,10.4,0000.0,0009.73,0005.00,0004.55
2023-02-05 09:37:00,,0825.2,4.96,0.00,22.3,21.1,00.0,31.1,24.1,09.9,0000.0,0009.71,0004.95,0004.51
2023-02-05 09:38:00,,0825.2,5.04,0.00,22.3,21.1,00.0,31.2,24.1,09.6,0000.0,0009.81,0004.92,0004.43
2023-02-05 09:39:00,,0825.2,4.97,0.00,22.3,21.1,00.0,31.1,24.2,09.5,0000.0,0009.61,0004.87,0004.34
2023-02-05 09:40:00,,0825.2,5.03,0.00,22.3,21.1,00.0,31.2,24.2,09.8,0000.0,0009.23,0004.86,0004.28
2023-02-05 09:41:00,,0825.2,4.96,0.00,22.3,21.1,00.0,31.2,24.2,09.7,0000.0,0009.13,0004.80,0004.23
2023-02-05 09:42:00,,0825.1,5.04,0.00,22.3,21.1,00.0,31.2,24.2,09.7,0000.0,0008.97,0004.71,0004.13
2023-02-05 09:43:00,,0825.1,4.96,0.00,22.3,21.1,00.0,31.2,24.2,10.4,0000.0,0008.62,0004.69,0004.12
2023-02-05 09:44:00,,0825.1,5.04,0.00,22.3,21.1,00.0,31.2,24.2,10.2,0000.0,0008.41,0004.66,0004.08
2023-02-05 09:45:00,,0825.1,4.97,0.00,22.3,21.1,00.0,31.2,24.2,09.8,0000.0,0008.10,0004.57,0004.01
2023-02-05 09:46:00,,0825.0,5.01,0.00,22.3,21.1,00.0,31.2,24.2,09.8,0000.0,0008.05,0004.50,0003.91
2023-02-05 09:47:00,,0825.0,4.99,0.00,22.3,21.1,00.0,31.2,24.2,09.8,0000.0,0008.15,0004.45,0003.85
2023-02-05 09:48:00,,0825.0,4.98,0.00,22.3,21.1,00.0,31.2,24.2,09.7,0000.0,0008.28,0004.43,0003.83
2023-02-05 09:49:00,,0825.0,5.00,0.00,22.3,21.0,00.0,31.2,24.2,10.0,0000.0,0008.38,0004.48,0003.89
2023-02-05 09:50:00,,0825.0,5.00,0.00,22.3,21.0,00.0,31.2,24.2,09.8,0000.0,0008.40,0004.52,0003.96
2023-02-05 09:51:00,,0825.0,5.00,0.00,22.3,20.9,00.0,31.2,24.2,09.8,0000.0,0008.33,0004.51,0003.99
2023-02-05 09:52:00,,0825.1,5.02,0.00,22.3,20.8,00.0,31.2,24.1,10.5,0000.0,0008.41,0004.56,0004.03
2023-02-05 09:53:00,,0825.2,4.98,0.00,22.3,20.8,00.0,31.2,24.1,10.9,0000.0,0008.43,0004.72,0004.16
2023-02-05 09:54:00,,0825.1,5.02,0.00,22.3,20.9,00.0,31.2,24.1,11.3,0000.0,0008.76,0004.87,0004.31
2023-02-05 09:55:00,,0825.0,4.98,0.00,22.3,20.9,00.0,31.2,24.1,11.4,0000.0,0009.09,0005.11,0004.51
2023-02-05 09:56:00,,0824.9,5.00,0.00,22.3,20.9,00.0,31.2,24.1,11.3,0000.0,0009.35,0005.37,0004.76
2023-02-05 09:57:00,,0824.9,5.01,0.00,22.3,21.0,00.0,31.2,24.1,11.4,0000.0,0009.72,0005.65,0005.04
2023-02-05 09:58:00,,0825.1,4.97,0.00,22.3,21.0,00.0,31.2,24.1,11.5,0000.0,0010.54,0005.98,0005.34
2023-02-05 09:59:00,,0825.1,5.03,0.00,22.3,21.0,00.0,31.2,24.1,11.5,0000.0,0010.80,0006.30,0005.64
